Flag for Romania Weather past 2 weeks in Iasi, Romania

Now
82 °F

Clear.


Feels Like: 82 °F
Forecast: 67 / 93 °F
Wind: 5 mph from East

Location: Iasi Airport

Current Time: Aug 28, 2015 at 10:12:45 PM

Latest Report: Aug 28, 2015 at 9:00 PM


Visibility: 10 mi

Pressure: 30.07 "Hg

Humidity: 42%

Dew point: 57 °F

Location of IasiLocation

Historic Weather in Iasi — Graph

°F

Iasi temperature yesterday

Maximum temperature yesterday: 86 °F (at 3:00 PM)
Minimum temperature yesterday: 63 °F (at 5:30 AM)
Average temperature yesterday: 76 °F

Past Weeks' High & Low Weather Summary

 TemperatureHumidityPressure
High91 °F (Aug 14, 3:00 PM)100% (Aug 17, 8:30 AM)30.27 "Hg (Aug 17, 8:30 AM)
Low52 °F (Aug 22, 6:30 AM)20% (Aug 25, 3:00 PM)29.77 "Hg (Aug 15, 6:30 PM)
Average71 °F63%30.03 "Hg
* Reported Aug 13 9:00 PM — Aug 28 9:00 PM, Iasi, Weather by CustomWeather, © 2015

Note: Actual official high and low records may vary slightly from our data, if they occured in-between our weather recording intervals... More about our weather records

Advertising

Iasi weather history for previous 24 hours

 ConditionsComfort  
Time TempWeatherWind HumidityBarometerVisibility
9:00 PM
Fri, Aug 28
82 °FClear.5 mph42%30.07 "Hg10 mi
8:30 PM84 °FSunny.6 mph40%30.07 "Hg10 mi
8:00 PM86 °FSunny.1 mph38%30.07 "Hg10 mi
7:30 PM90 °FPassing clouds.2 mph31%30.07 "HgN/A
7:00 PM91 °FSunny.1 mph41%30.07 "Hg10 mi
6:30 PM90 °FPassing clouds.3 mph29%30.07 "HgN/A
6:00 PM91 °FPassing clouds.2 mph28%30.07 "HgN/A
5:30 PM91 °FSunny.3 mph28%30.07 "Hg10 mi
5:00 PM91 °FPassing clouds.5 mph28%30.07 "HgN/A
4:30 PM91 °FSunny.5 mph30%30.07 "Hg10 mi
4:00 PM91 °FPassing clouds.6 mph32%30.07 "HgN/A
3:30 PM91 °FSunny.3 mph34%30.07 "Hg10 mi
3:00 PM91 °FPassing clouds.5 mph34%30.07 "HgN/A
2:30 PM90 °FSunny.5 mph38%30.09 "Hg10 mi
2:00 PM88 °FPassing clouds.5 mph46%30.09 "HgN/A
1:30 PM90 °FSunny.2 mph41%30.09 "Hg10 mi
1:00 PM86 °FPassing clouds.3 mph46%30.09 "HgN/A
12:30 PM86 °FPassing clouds.3 mph46%30.12 "HgN/A
12:00 PM84 °FPassing clouds.2 mph48%30.12 "HgN/A
11:30 AM82 °FPassing clouds.3 mph51%30.12 "HgN/A
11:00 AM81 °FPassing clouds.2 mph51%30.12 "HgN/A
10:30 AM79 °FSunny.2 mph54%30.12 "Hg10 mi
10:00 AM77 °FSunny.2 mph57%30.12 "Hg10 mi
9:30 AM75 °FPassing clouds.2 mph61%30.12 "HgN/A
9:00 AM73 °FSunny.1 mph65%30.12 "Hg10 mi
8:30 AM72 °FSunny.1 mph65%30.09 "Hg10 mi
8:00 AM70 °FSunny.No wind73%30.09 "Hg10 mi
7:30 AM68 °FSunny.No wind73%30.09 "Hg10 mi
6:30 AM66 °FClear.3 mph73%30.09 "Hg10 mi
6:00 AM66 °FPassing clouds.2 mph73%30.09 "HgN/A
5:30 AM66 °FClear.3 mph73%30.07 "Hg10 mi
5:00 AM66 °FMild.5 mph73%30.09 "HgN/A
4:00 AM70 °FClear.7 mph60%30.07 "Hg10 mi
3:00 AM70 °FClear.7 mph60%30.07 "Hg10 mi
2:00 AM72 °FClear.6 mph61%30.07 "Hg10 mi
1:00 AM75 °FClear.No wind54%30.09 "Hg10 mi
12:00 AM77 °FClear.2 mph47%30.09 "Hg10 mi
11:00 PM
Thu, Aug 27
77 °FClear.No wind51%30.09 "Hg10 mi
10:00 PM77 °FPassing clouds.2 mph57%30.09 "HgN/A
Weather by CustomWeather, © 2015

See weather overviewHow to use our weather pages